Change the Weather History Date:

Wednesday, November 16, 2011

  Actual Average Record
Temperature  
Mean Temperature 21 °F 31 °F  
Max Temperature 30 °F 40 °F 74 °F (2001)
Min Temperature 12 °F 21 °F -7 °F (1959)
Degree Days  
Heating Degree Days 44 34  
Month to date heating degree days 417 483  
Since 1 July heating degree days 1066 1310  
Cooling Degree Days 0 0  
Month to date cooling degree days 0 0  
Year to date cooling degree days 642 527  
Moisture  
Dew Point 12 °F    
Average Humidity 60    
Maximum Humidity 74    
Minimum Humidity 46    
Precipitation  
Precipitation 0.00 in 0.02 in 0.62 in (1987)
Month to date precipitation 0.06 0.42  
Year to date precipitation 21.03 21.78  
Snow  
Snow 0.00 in - - ()
Month to date snowfall 0.0  
Since 1 July snowfall 0.0  
Snow Depth 0.00 in    
Sea Level Pressure  
Sea Level Pressure 30.17 in    
Wind  
Wind Speed 14 mph (NW)    
Max Wind Speed 29 mph    
Max Gust Speed 35 mph    
T = Trace of Precipitation, MM = Missing Value Source: NWS Daily Summary

Daily Weather History Graph

Daily Weather History Graph

Search for Another Location

Airport or City:

Trip Planner

Search our weather history database for the weather conditions in past years. The results will help you decide how hot, cold, wet, or windy it might be!

Date:

Astronomy

Nov. 16, 2011 Rise Set
Actual Time 7:28 AM CST 4:56 PM CST
Civil Twilight 6:56 AM CST 5:28 PM CST
Nautical Twilight 6:20 AM CST 6:04 PM CST
Astronomical Twilight 5:45 AM CST 6:39 PM CST
Moon 10:14 PM CST (11/16) 12:03 PM CST (11/16)
Length of Visible Light 10h 32m
Length of Day
9h 27m
Waning Gibbous, 70% of the Moon is Illuminated
Nov 16
Waning Gibbous
Nov 18
Last Quarter
Nov 25
New
Dec 2
First Quarter
Dec 10
Full

Hourly Weather History & Observations

Time (CST) Temp. Windchill Dew Point Humidity Pressure Visibility Wind Dir Wind Speed Gust Speed Precip Events Conditions
12:56 AM 24.1 °F 13.7 °F 12.9 °F 62% 30.04 in - NW 10.4 mph - N/A   Unknown
1:56 AM 24.1 °F 13.1 °F 12.0 °F 60% 30.05 in - WNW 11.5 mph - N/A   Unknown
2:56 AM 23.0 °F 12.4 °F 14.0 °F 68% 30.06 in - West 10.4 mph - N/A   Unknown
3:56 AM 24.1 °F 12.5 °F 14.0 °F 65% 30.06 in - West 12.7 mph - N/A   Unknown
4:56 AM 25.0 °F 12.6 °F 15.1 °F 66% 30.06 in - West 15.0 mph - N/A   Unknown
5:56 AM 25.0 °F 12.2 °F 14.0 °F 63% 30.07 in - WNW 16.1 mph - N/A   Unknown
6:56 AM 23.0 °F 10.6 °F 14.0 °F 68% 30.10 in - WNW 13.8 mph 19.6 mph N/A   Unknown
7:56 AM 23.0 °F 11.1 °F 15.1 °F 72% 30.12 in - WNW 12.7 mph - N/A   Unknown
8:56 AM 26.1 °F 13.6 °F 16.0 °F 66% 30.14 in - NW 16.1 mph - N/A   Unknown
9:56 AM 27.0 °F 14.7 °F 17.1 °F 66% 30.16 in - NW 16.1 mph - N/A   Unknown
10:56 AM 27.0 °F 15.6 °F 17.1 °F 66% 30.17 in - NNW 13.8 mph - N/A   Unknown
11:56 AM 28.0 °F 14.6 °F 12.9 °F 53% 30.18 in - NW 20.7 mph 28.8 mph N/A   Unknown
12:56 PM 27.0 °F 12.5 °F 10.9 °F 51% 30.17 in - NNW 23.0 mph 32.2 mph N/A   Unknown
1:56 PM 28.0 °F 14.6 °F 10.0 °F 47% 30.18 in - NW 20.7 mph 32.2 mph N/A   Unknown
2:56 PM 28.0 °F 14.6 °F 12.0 °F 51% 30.19 in - NNW 20.7 mph 27.6 mph N/A   Unknown
3:56 PM 26.1 °F 11.6 °F 10.9 °F 53% 30.21 in - NW 21.9 mph 28.8 mph N/A   Unknown
4:56 PM 24.1 °F 11.5 °F 9.0 °F 53% 30.23 in - NNW 15.0 mph 24.2 mph N/A   Unknown
5:56 PM 21.0 °F 9.3 °F 9.0 °F 60% 30.26 in - NW 11.5 mph - N/A   Unknown
6:56 PM 19.0 °F 11.1 °F 9.0 °F 65% 30.27 in - NW 5.8 mph - N/A   Unknown
7:56 PM 19.0 °F 8.2 °F 9.0 °F 65% 30.26 in - NW 9.2 mph - N/A   Unknown
8:56 PM 21.0 °F 8.6 °F 10.0 °F 63% 30.25 in - NW 12.7 mph - N/A   Unknown
9:56 PM 19.9 °F 7.9 °F 9.0 °F 62% 30.25 in - NNW 11.5 mph - N/A   Unknown
10:56 PM 15.1 °F 5.2 °F 8.1 °F 74% 30.27 in - North 6.9 mph - N/A   Unknown
11:56 PM 12.0 °F 2.7 °F 6.1 °F 77% 30.27 in - NNW 5.8 mph - 0.01 in   Unknown